Tracking 20628 objects as of 5-Apr-2020
HD Live streaming from Space Station
objects crossing your sky now

SL-12 R/B(AUX MOTOR)

Track SL-12 R/B(AUX MOTOR) now!
10-day predictions


NORAD ID: 19170
Int'l Code: 1988-043H
Perigee: 597.9 km
Apogee: 18,858.4 km
Inclination: 65.2 °
Period: 338.8 minutes
Semi major axis: 16099 km
RCS: 0.7038 m2 (medium)
Launch date: May 21, 1988
Source: Commonwealth of Independent States (former USSR) (CIS)
Launch site: TYURATAM MISSILE AND SPACE COMPLEX (TTMTR)

Note: This is a ROCKET BODY
aabbcc
Your satellite tracking list
Your tracking list is empty




NASA's NSSDC Master Catalog

Two Line Element Set (TLE):
1 19170U 88043H   20095.81331458 -.00000003 +00000-0 +13118-3 0  9991
2 19170 065.1935 001.2402 5671252 141.4779 277.3085 04.25008894493838
Source of the keplerian elements: AFSPC